Location: Black Swamp Observatory
(41.3920°N, 84.1250°W)
Time: 14:45:37
(UTC-05:00)

Vanguard 2 Rocket - Visible Passes

Search period start: 25 January 2022 00:00
Search period end: 04 February 2022 00:00
Orbit: 553 x 3325 km, 32.9° (Epoch: 25 January)

Date Brightness Start Highest point End Pass type
(mag) Time Alt. Az. Time Alt. Az. Time Alt. Az.
25 Jan 9.9 02:37:02 45° ESE 02:37:02 45° ESE 02:50:54 10° E visible
25 Jan 9.5 04:42:48 50° SW 04:48:58 66° S 05:08:34 10° ESE visible
25 Jan 9.9 06:48:34 12° W 07:06:43 55° SSW 07:23:35 10° SE visible
26 Jan 10.4 01:40:23 26° E 01:40:23 26° E 01:48:01 10° E visible
26 Jan 9.4 03:46:09 64° S 03:46:39 64° S 04:06:40 10° E visible
26 Jan 9.8 05:51:54 27° W 06:04:31 61° SSW 06:23:00 10° ESE visible
27 Jan 10.9 00:43:44 12° E 00:43:44 12° E 00:44:41 10° E visible
27 Jan 9.7 02:49:29 50° ESE 02:49:29 50° ESE 03:04:17 10° E visible
27 Jan 9.5 04:55:15 46° WSW 05:02:09 65° S 05:21:45 10° ESE visible
27 Jan 10.1 07:01:15 10° W 07:19:30 47° SSW 07:36:07 10° SE visible
28 Jan 10.3 01:52:50 30° E 01:52:50 30° E 02:01:30 10° E visible
28 Jan 9.3 03:58:35 64° SSW 03:59:51 65° S 04:19:55 10° ESE visible
28 Jan 9.9 06:04:22 24° W 06:17:30 55° SSW 06:35:46 10° SE visible
29 Jan 10.8 00:56:11 14° E 00:56:11 14° E 00:58:22 10° E visible
29 Jan 9.6 03:01:57 55° SE 03:01:57 55° SE 03:17:35 10° E visible
29 Jan 9.5 05:07:43 42° WSW 05:15:17 60° SSW 05:34:44 10° ESE visible
29 Jan 10.2 07:15:04 10° W 07:32:08 38° SW 07:48:09 10° SSE visible
30 Jan 10.1 02:05:19 34° ESE 02:05:19 34° ESE 02:14:51 10° E visible
30 Jan 9.3 04:11:05 61° SSW 04:13:03 63° S 04:33:02 10° ESE visible
30 Jan 10.0 06:16:51 20° W 06:30:21 47° SSW 06:48:10 10° SE visible
31 Jan 10.7 01:08:43 17° E 01:08:43 17° E 01:11:50 10° E visible
31 Jan 9.5 03:14:29 57° SE 03:14:29 57° SE 03:30:47 10° ESE visible
31 Jan 9.6 05:20:14 37° WSW 05:28:19 54° SSW 05:47:24 10° SE visible
01 Feb 10.0 02:17:54 36° ESE 02:17:54 36° ESE 02:28:06 10° E visible
01 Feb 9.3 04:23:40 56° SW 04:26:13 59° SSW 04:45:55 10° ESE visible
01 Feb 10.1 06:29:26 16° W 06:43:04 38° SSW 07:00:00 10° SSE visible
02 Feb 10.6 01:21:21 18° E 01:21:21 18° E 01:25:10 10° E visible
02 Feb 9.4 03:27:07 57° SSE 03:27:07 57° SSE 03:43:49 10° ESE visible
02 Feb 9.7 05:32:53 31° WSW 05:41:15 45° SSW 05:59:37 10° SE visible
03 Feb 9.9 02:30:36 38° ESE 02:30:36 38° ESE 02:41:16 10° ESE visible
03 Feb 9.4 04:36:23 49° SW 04:39:20 52° SSW 04:58:27 10° SE visible
03 Feb 10.3 06:42:09 12° W 06:55:43 29° SW 07:11:03 10° SSE visible
